Wind_Speed
82 81 79 76 75 75 74 72 72 76 78 82 85 87 94 101 101 100 96 96 94 96 85 81 79 73 66 66 68 67 66 70 69 65 64 58 57 52 54 43 38 43 48
88 88 87 84 82 79 78 77 76 74 74 74 82 87 88 87 91 99 101 100 97 98 92 87 76 77 71 74 72 68 67 62 61 62 59 50 55 56 48 43 45 48 47
90 91 92 91 89 87 84 81 78 77 76 75 75 79 81 86 90 86 93 99 98 100 91 89 81 78 76 75 73 71 66 64 62 59 61 64 58 53 55 52 46 46 46
95 97 95 95 94 94 92 90 87 84 81 79 79 79 79 76 81 84 85 85 89 96 96 96 92 83 78 77 76 75 70 71 72 71 69 67 52 56 50 44 47 48 49
98 99 99 99 99 100 100 97 95 93 90 87 84 83 83 81 81 79 80 84 83 83 84 88 89 84 77 79 77 74 73 73 75 70 67 62 59 48 45 48 49 48 51
106 106 105 105 104 106 105 103 102 100 98 94 92 88 85 84 81 82 83 80 79 78 77 84 86 85 83 73 71 74 71 70 69 68 68 53 51 53 52 46 50 48 55
113 114 114 114 111 113 111 111 108 106 104 101 98 94 92 89 87 85 86 85 81 78 77 81 85 84 83 70 69 65 65 66 66 66 60 59 54 56 52 54 52 51 53
121 121 121 121 120 119 118 118 116 113 112 110 107 104 100 97 93 93 89 86 83 81 79 82 82 83 83 77 67 67 70 69 64 59 58 58 56 54 54 56 50 54 56
113 118 122 125 126 126 125 124 124 120 117 116 115 111 109 105 102 98 93 89 85 82 82 80 82 87 87 85 85 72 72 66 65 65 59 60 60 60 61 53 57 55 53
107 108 110 111 113 116 118 119 120 122 117 116 115 113 111 108 102 96 92 87 86 84 84 82 83 89 85 83 84 88 79 64 67 66 66 67 62 59 58 55 55 56 57
94 97 100 101 102 105 104 105 108 108 109 106 105 98 99 100 98 94 88 84 84 84 84 83 85 85 89 84 80 78 82 83 80 67 65 67 66 59 53 54 57 55 57
83 85 87 89 91 95 95 94 97 98 99 101 100 97 95 93 93 90 84 83 82 83 83 85 83 78 85 95 86 82 84 80 74 75 85 78 70 70 71 70 68 65 64
75 75 74 78 81 83 86 87 92 93 91 91 94 91 89 88 89 88 86 82 82 84 83 83 87 80 79 80 101 97 87 84 90 82 79 78 79 76 66 68 69 71 71
72 73 72 68 70 73 76 78 83 86 88 88 88 90 86 88 87 88 86 84 83 84 85 82 79 84 88 83 82 85 99 106 93 87 85 85 78 74 70 70 67 69 65
68 69 68 68 66 67 68 70 74 78 84 86 84 84 82 83 86 86 86 85 83 84 82 81 74 74 80 84 86 86 89 93 102 102 104 95 86 89 93 94 91 87 85
64 66 66 67 64 63 61 64 68 70 74 75 77 79 80 81 84 87 85 83 83 82 80 79 80 74 70 76 77 81 80 84 93 98 101 103 103 97 95 92 89 90 90
53 53 56 59 57 54 54 55 62 62 64 67 68 71 75 81 82 84 86 83 82 79 79 79 76 70 64 66 68 76 67 69 64 67 72 86 85 85 81 77 72 74 71
47 43 44 49 50 50 49 52 56 62 53 53 59 62 69 75 79 77 84 84 82 78 77 71 69 61 52 55 54 57 55 60 55 52 54 52 65 63 57 63 59 53 56
40 39 38 41 43 45 46 48 51 52 47 51 54 58 61 68 73 77 78 84 84 80 73 71 72 50 48 74 75 71 60 54 55 54 56 56 55 56 54 54 53 50 50
35 34 34 35 37 39 41 42 43 40 39 47 51 51 54 60 65 70 75 80 84 83 81 78 75 81 81 73 67 71 68 60 60 58 56 57 59 64 61 56 51 51 56
31 29 30 30 31 31 32 35 38 37 37 42 48 49 49 52 58 64 69 77 80 85 87 85 84 83 96 91 83 83 80 76 63 62 64 62 58 60 62 63 58 57 58
27 26 26 27 27 26 29 29 29 33 37 42 45 46 46 48 52 57 63 69 76 82 86 88 87 87 89 88 89 83 81 78 78 72 71 72 70 70 67 69 69 68 70
22 22 21 21 22 22 25 26 30 33 34 35 39 43 45 45 49 54 57 62 68 73 82 85 86 88 89 86 91 88 82 77 77 80 81 81 73 76 75 80 75 75 78
17 16 15 17 19 19 21 24 25 26 28 30 35 41 43 44 46 50 54 59 63 68 71 80 80 80 84 89 86 87 87 87 84 81 80 77 74 75 79 87 87 88 89
12 11 11 13 16 16 18 21 23 24 26 29 33 35 36 36 40 45 51 53 55 56 65 69 74 77 80 82 80 88 90 84 82 79 78 76 78 76 81 85 87 85 86
7 7 8 9 10 12 14 16 18 20 22 24 28 32 32 32 32 32 35 41 45 50 57 64 67 72 74 78 80 87 90 86 79 74 75 76 75 78 83 88 91 90 89
Wind_Direction
250 251 252 253 251 250 250 252 253 256 255 254 252 253 253 251 252 253 253 254 255 257 260 260 261 262 260 261 265 269 272 276 278 281 285 293 294 299 300 294 307 314 315
251 250 250 251 252 252 254 254 253 252 255 254 255 256 255 255 255 253 252 254 254 256 256 260 258 260 258 264 264 267 270 275 279 283 287 286 293 297 293 294 302 310 308
250 251 253 253 253 254 254 256 256 256 256 258 260 260 260 259 255 254 253 253 252 254 253 255 256 254 257 258 260 265 269 273 276 280 284 290 291 288 292 289 295 301 305
251 252 251 252 253 254 255 256 256 256 256 254 255 259 262 262 261 258 253 252 253 252 253 254 254 252 252 255 259 262 267 269 275 278 283 289 283 290 285 285 292 299 302
254 254 254 254 253 253 255 256 257 258 258 257 259 258 260 262 263 263 260 255 253 254 254 252 251 247 251 255 257 261 264 267 272 278 281 284 285 280 286 286 292 293 299
255 255 255 255 255 256 256 257 258 259 259 259 259 258 259 259 260 263 263 261 256 255 254 250 245 244 247 255 257 259 261 266 269 274 281 271 278 285 283 287 292 289 297
254 254 255 255 256 257 257 259 259 259 260 260 260 260 261 259 259 260 263 261 258 253 253 249 244 241 245 249 255 257 260 263 268 272 271 271 277 280 282 284 290 292 297
254 254 255 255 254 255 256 258 257 258 260 260 260 261 262 260 259 259 259 256 256 254 250 250 246 242 243 242 249 256 257 260 262 263 265 270 274 272 276 283 287 290 293
254 254 254 255 255 255 255 255 257 257 256 258 259 260 260 259 260 259 256 255 252 252 251 249 245 239 240 246 243 249 255 256 257 263 263 264 270 274 282 278 286 286 288
256 255 255 254 254 255 255 256 255 257 255 254 254 255 255 256 257 254 253 252 250 250 249 249 245 243 239 247 250 248 250 256 256 257 258 262 269 275 278 279 282 282 283
258 258 257 256 255 255 254 253 254 253 253 252 252 248 248 249 251 251 249 250 247 247 247 246 246 244 236 242 246 250 252 254 255 256 258 261 267 268 270 275 278 283 282
257 256 256 256 254 254 254 252 253 252 250 250 249 248 246 245 245 247 244 246 246 245 245 245 246 245 243 236 244 249 249 250 255 255 258 260 262 263 265 270 273 276 280
262 260 254 253 254 253 252 251 251 251 250 248 248 247 243 241 240 242 242 242 244 245 244 245 243 244 246 247 242 242 245 255 255 255 255 257 261 264 265 271 271 276 277
265 264 263 258 253 253 250 249 248 249 248 247 245 244 242 238 237 238 240 239 239 242 244 246 248 247 246 248 249 248 248 247 249 256 256 255 253 259 263 269 265 266 275
265 264 263 263 259 255 252 249 247 246 245 245 244 244 241 238 236 235 235 236 236 239 243 246 246 247 248 251 253 252 254 251 249 250 254 256 259 261 262 264 265 268 272
265 264 263 263 261 258 254 251 249 248 248 246 244 243 241 238 236 233 234 234 234 235 238 239 241 243 247 249 252 253 257 259 256 256 256 255 258 265 269 272 270 268 270
268 263 261 261 260 257 252 250 250 249 246 245 244 241 238 236 235 233 231 232 233 234 235 232 237 241 250 258 254 256 257 259 260 260 262 266 267 268 267 269 271 271 272
270 267 260 260 258 255 250 246 244 246 242 244 242 239 236 234 234 233 230 229 230 230 231 231 233 233 242 243 248 245 239 244 246 245 250 255 258 260 264 267 270 272 271
272 269 262 257 256 253 251 250 248 250 237 235 237 235 232 232 232 231 229 227 227 227 224 222 226 217 228 243 244 244 231 231 237 242 243 249 258 264 265 268 274 272 269
270 265 260 255 251 251 249 247 247 247 243 238 236 233 229 228 230 229 228 226 225 225 223 221 220 217 222 230 230 230 236 238 237 239 239 246 251 256 262 266 267 261 262
269 265 261 256 251 247 245 243 242 240 233 229 230 232 231 227 225 227 226 226 225 224 224 223 223 221 225 229 232 237 241 239 240 235 235 238 244 251 259 260 255 257 261
270 268 262 257 249 245 241 239 237 234 227 225 225 228 227 225 222 222 224 224 225 225 226 227 228 231 231 233 237 239 243 242 241 241 238 238 241 242 246 253 252 257 257
272 268 261 254 248 242 241 235 232 231 230 227 221 224 225 222 220 220 220 221 221 223 224 226 229 230 233 240 241 241 242 242 241 240 237 244 247 243 245 247 249 253 258
275 265 256 249 245 241 239 234 235 230 221 218 215 219 222 220 219 218 218 220 220 220 221 223 225 225 226 229 237 246 245 242 241 243 245 248 249 251 248 246 250 255 258
274 263 249 243 239 237 234 227 223 224 219 214 216 221 224 222 219 218 218 220 222 221 220 220 222 223 225 229 230 239 243 247 248 247 249 248 249 251 251 250 254 259 259
285 268 252 236 230 229 225 221 216 214 212 210 211 215 217 216 219 221 219 219 219 218 218 218 218 219 221 226 230 235 243 245 246 247 246 247 249 250 249 252 253 257 260
Height
10709 10713 10716 10718 10722 10724 10727 10731 10735 10735 10743 10746 10750 10752 10758 10763 10768 10776 10781 10786 10792 10794 10799 10803 10806 10808 10810 10810 10811 10811 10811 10813 10815 10818 10819 10818 10818 10815 10814 10810 10807 10803 10800
10689 10691 10694 10698 10702 10704 10707 10712 10716 10721 10723 10727 10729 10730 10733 10740 10745 10755 10758 10766 10769 10776 10781 10786 10789 10791 10796 10797 10797 10799 10800 10800 10801 10803 10805 10807 10807 10806 10803 10800 10797 10794 10790
10669 10669 10672 10675 10680 10684 10687 10691 10696 10702 10706 10710 10712 10711 10713 10719 10722 10730 10735 10742 10747 10754 10759 10766 10771 10774 10779 10782 10783 10785 10786 10787 10787 10790 10792 10794 10795 10794 10793 10790 10787 10784 10781
10644 10643 10650 10652 10657 10660 10664 10668 10673 10679 10685 10690 10692 10691 10694 10699 10700 10706 10712 10719 10726 10732 10739 10745 10750 10755 10760 10764 10767 10771 10772 10771 10774 10776 10779 10780 10782 10780 10779 10778 10776 10774 10771
10617 10619 10623 10628 10632 10635 10638 10644 10649 10655 10661 10666 10671 10675 10677 10681 10680 10682 10688 10696 10707 10711 10718 10724 10730 10736 10740 10744 10751 10753 10758 10757 10760 10762 10766 10767 10768 10768 10767 10766 10765 10763 10759
10588 10589 10594 10599 10605 10608 10612 10618 10622 10628 10634 10641 10646 10652 10656 10660 10663 10665 10666 10672 10681 10691 10698 10704 10709 10717 10725 10726 10731 10739 10741 10743 10746 10749 10752 10754 10755 10757 10754 10754 10752 10751 10749
10556 10559 10562 10567 10576 10575 10583 10588 10594 10600 10606 10612 10618 10626 10632 10636 10642 10646 10647 10652 10661 10671 10679 10684 10691 10700 10706 10710 10714 10719 10725 10729 10732 10737 10739 10740 10742 10741 10742 10743 10739 10739 10736
10521 10526 10529 10532 10540 10547 10554 10558 10565 10572 10577 10582 10590 10598 10605 10610 10616 10621 10627 10635 10641 10647 10656 10664 10674 10681 10687 10696 10698 10704 10709 10714 10719 10722 10726 10726 10727 10726 10727 10729 10727 10726 10724
10485 10489 10493 10497 10503 10511 10520 10525 10529 10539 10549 10554 10560 10569 10575 10584 10589 10594 10602 10612 10622 10628 10632 10644 10655 10659 10668 10673 10684 10690 10692 10699 10702 10707 10712 10711 10712 10713 10714 10714 10714 10713 10712
10450 10455 10458 10463 10469 10474 10484 10489 10497 10502 10510 10520 10528 10538 10548 10554 10560 10571 10580 10590 10601 10605 10610 10622 10632 10640 10652 10657 10663 10671 10679 10681 10686 10692 10697 10697 10699 10701 10701 10700 10700 10701 10700
10418 10419 10422 10428 10434 10438 10447 10454 10458 10469 10476 10485 10493 10506 10516 10527 10533 10544 10556 10567 10577 10584 10593 10603 10608 10620 10635 10641 10645 10653 10660 10664 10672 10677 10679 10683 10686 10687 10688 10688 10687 10689 10688
10390 10392 10393 10396 10402 10405 10413 10421 10424 10432 10442 10451 10463 10474 10486 10500 10509 10521 10534 10544 10553 10562 10572 10580 10588 10602 10613 10625 10629 10634 10640 10647 10652 10661 10664 10668 10670 10672 10673 10675 10675 10675 10675
10362 10364 10369 10371 10373 10379 10386 10393 10395 10400 10409 10422 10431 10444 10459 10472 10485 10496 10510 10523 10532 10540 10550 10559 10570 10583 10593 10599 10607 10617 10625 10625 10633 10641 10646 10650 10653 10654 10657 10659 10660 10660 10662
10341 10340 10342 10347 10351 10354 10360 10367 10368 10376 10385 10393 10405 10417 10430 10443 10459 10471 10485 10499 10511 10519 10530 10542 10555 10563 10572 10581 10587 10597 10603 10607 10612 10620 10626 10632 10637 10639 10642 10643 10645 10644 10646
10317 10317 10319 10321 10326 10331 10337 10343 10346 10352 10357 10366 10380 10391 10405 10419 10434 10446 10459 10473 10488 10499 10513 10525 10536 10543 10553 10559 10565 10576 10579 10584 10591 10600 10605 10610 10616 10621 10626 10627 10629 10633 10631
10297 10295 10297 10299 10303 10307 10316 10321 10324 10332 10337 10348 10359 10371 10382 10396 10409 10422 10435 10450 10464 10478 10493 10503 10514 10526 10535 10541 10546 10552 10560 10564 10572 10579 10585 10592 10597 10602 10604 10603 10607 10609 10610
10279 10278 10279 10279 10282 10287 10295 10303 10302 10311 10318 10325 10336 10347 10359 10370 10384 10399 10413 10428 10443 10458 10470 10484 10500 10514 10522 10525 10528 10535 10544 10549 10555 10560 10564 10568 10577 10579 10584 10583 10585 10590 10593
10262 10262 10263 10263 10265 10268 10274 10279 10283 10282 10298 10310 10317 10325 10335 10346 10361 10376 10391 10406 10421 10436 10451 10472 10488 10504 10502 10506 10511 10520 10527 10533 10541 10546 10549 10553 10562 10567 10568 10562 10574 10574 10576
10248 10247 10247 10248 10249 10252 10258 10262 10267 10272 10284 10290 10295 10304 10314 10325 10338 10353 10368 10383 10398 10416 10439 10455 10467 10492 10500 10476 10489 10504 10510 10518 10526 10532 10536 10541 10544 10548 10553 10555 10557 10558 10561
10234 10234 10234 10235 10238 10240 10243 10249 10253 10259 10268 10275 10281 10288 10298 10310 10321 10334 10349 10363 10379 10395 10414 10434 10449 10462 10461 10459 10472 10486 10494 10505 10512 10518 10524 10530 10533 10535 10539 10542 10543 10546 10548
10223 10224 10224 10225 10227 10230 10234 10237 10241 10247 10254 10258 10265 10274 10284 10295 10306 10317 10329 10344 10359 10374 10389 10408 10422 10434 10441 10447 10459 10468 10478 10489 10497 10504 10508 10514 10520 10524 10526 10527 10530 10533 10534
10214 10214 10215 10216 10218 10221 10224 10228 10232 10235 10240 10246 10254 10262 10270 10279 10290 10299 10310 10325 10339 10354 10371 10385 10401 10413 10423 10429 10440 10451 10460 10469 10478 10485 10492 10497 10502 10506 10512 10514 10517 10518 10520
10207 10207 10208 10209 10211 10213 10215 10219 10221 10225 10231 10239 10246 10251 10257 10267 10275 10283 10294 10306 10319 10335 10350 10362 10377 10391 10405 10415 10419 10431 10440 10450 10457 10465 10472 10479 10485 10490 10494 10494 10499 10504 10504
10203 10202 10203 10205 10206 10208 10211 10213 10215 10220 10225 10231 10236 10242 10248 10255 10264 10273 10282 10290 10301 10315 10330 10345 10358 10374 10387 10394 10402 10405 10412 10426 10438 10446 10453 10459 10465 10469 10476 10477 10481 10484 10486
10199 10198 10199 10200 10202 10204 10207 10210 10212 10215 10220 10225 10231 10237 10243 10249 10255 10263 10271 10280 10293 10305 10316 10329 10343 10357 10369 10380 10388 10383 10394 10407 10419 10429 10436 10442 10447 10453 10458 10460 10461 10464 10466
10197 10198 10198 10199 10200 10202 10204 10206 10210 10214 10218 10222 10227 10230 10237 10244 10253 10261 10268 10276 10285 10294 10303 10315 10329 10342 10354 10362 10370 10374 10377 10389 10401 10411 10417 10424 10431 10434 10437 10439 10441 10444 10445